Location: Cortada Guamacho
(10.5667°N, 67.0833°W)
Time: 20:37:39
(UTC+00:00)

USA 32 - Pass Details

Date: 08 December 2021
Orbit: 778 x 782 km, 85.0° (Epoch: 18 December)

Event Time Altitude Azimuth Distance (km) Brightness Sun altitude
Rises 22:27:17 0° 173° (S) 3,250 7.5 -5.6°
Reaches altitude 10° 22:29:40 10° 169° (S) 2,323 6.7 -6.2°
Maximum altitude 22:34:47 58° 91° (E) 898 4.1 -7.3°
Drops below altitude 10° 22:39:53 10° 12° (NNE) 2,321 6.2 -8.5°
Sets 22:42:15 0° 9° (N) 3,249 6.9 -9.0°
